SCP
0 1 1 1 1 0 1 1 1 1 1 1 1 1 1 1 1 1 1 1 1 1 1 1 1 1 0 0 0 0 0 0 0 0 0 0 0 0 0 0 0 0 0
0 0 0 1 0 0 1 1 1 0 1 1 1 1 1 1 1 1 1 1 1 1 1 1 1 0 0 0 0 0 0 0 0 0 0 0 0 0 0 0 0 0 0
0 0 0 0 0 0 0 1 0 0 0 1 1 1 1 1 1 1 1 1 1 1 1 1 1 0 0 0 0 0 0 1 1 0 0 0 0 0 0 0 0 0 0
0 0 0 0 0 0 0 1 0 0 0 0 1 1 1 1 1 1 1 1 1 1 1 1 1 1 1 1 1 1 1 1 1 1 0 0 0 0 0 0 0 0 0
0 0 0 0 0 0 0 0 0 0 0 0 1 0 0 1 1 1 1 1 1 1 1 1 1 1 2 1 1 1 1 1 1 1 1 0 0 0 0 0 0 0 0
0 0 0 0 0 0 0 0 0 0 0 0 0 0 0 1 1 1 1 1 1 1 1 1 2 2 2 2 2 2 2 2 2 1 1 0 0 0 0 0 0 0 0
0 0 0 0 0 0 0 0 0 0 0 0 0 0 0 1 1 0 0 1 1 1 1 2 2 2 2 2 2 2 2 2 1 1 1 0 0 0 0 0 0 0 0
0 0 0 0 0 0 0 0 0 0 0 0 0 0 0 0 0 0 0 1 1 1 1 2 2 2 2 2 1 1 1 1 1 1 0 0 0 0 0 0 0 0 0
0 0 0 0 0 0 0 0 0 0 0 0 0 0 0 0 0 0 0 0 1 1 1 1 1 1 1 1 1 1 1 0 0 0 0 0 0 0 0 0 0 0 0
0 0 0 0 0 0 0 0 0 0 0 0 0 0 0 0 0 0 0 0 0 0 0 1 1 1 0 0 0 0 0 0 0 0 0 0 0 0 0 0 0 0 0
0 0 0 0 0 0 0 0 0 0 0 0 0 0 0 0 0 0 0 0 0 0 0 0 0 0 0 0 0 0 0 0 0 0 0 0 0 0 0 0 0 0 0
0 0 0 0 0 0 0 0 0 0 0 0 0 0 0 0 0 0 0 0 0 0 0 0 0 0 0 0 0 0 0 0 0 0 0 0 0 0 0 0 0 0 0
0 0 0 0 0 0 0 0 0 0 0 0 0 0 0 0 0 0 0 0 0 0 0 0 0 0 0 0 0 0 0 0 0 0 0 0 0 0 0 0 0 0 0
0 0 0 0 0 0 0 0 0 0 0 0 0 0 0 0 0 0 0 0 0 0 0 0 0 0 0 0 0 0 0 0 0 0 0 0 0 0 0 0 0 0 0
0 0 0 0 0 0 0 0 0 0 0 0 0 0 0 0 0 0 0 0 0 0 0 0 0 0 0 0 0 0 0 0 0 0 0 0 0 0 0 0 0 0 0
0 0 0 0 0 0 0 0 0 0 0 0 0 0 0 0 0 0 0 0 0 0 0 0 0 0 0 0 0 0 0 0 0 0 0 0 0 0 0 0 0 0 0
0 0 0 0 0 0 0 0 0 0 0 0 0 0 0 0 0 0 0 0 0 0 0 0 0 0 0 0 0 0 0 0 0 0 0 0 0 0 0 0 0 0 0
0 0 0 0 0 0 0 0 0 0 0 0 0 0 0 0 0 0 0 0 0 0 0 0 0 0 0 0 0 0 0 0 0 0 0 0 0 0 0 0 0 0 0
0 0 0 0 0 0 0 0 0 0 0 0 0 0 0 0 0 0 0 0 0 0 0 0 0 0 0 0 0 0 0 0 0 0 0 0 0 0 0 0 0 0 0
0 0 0 0 0 0 0 0 0 0 0 0 0 0 0 0 0 0 0 0 0 0 0 0 0 0 0 0 0 0 0 0 0 0 0 0 0 0 0 0 0 0 0
0 0 0 0 0 0 0 0 0 0 0 0 0 0 0 0 0 0 0 0 0 0 0 0 0 0 0 0 0 0 0 0 0 0 0 0 0 0 0 0 0 0 0
0 0 0 0 0 0 0 0 0 0 0 0 0 0 0 0 0 0 0 0 0 0 0 0 0 0 0 0 0 0 0 0 0 0 0 0 0 0 0 0 0 0 0
0 0 0 0 0 0 0 0 0 0 0 0 0 0 0 0 0 0 0 0 0 0 0 0 0 0 0 0 0 0 0 0 0 0 0 0 0 0 0 0 0 0 0
0 0 0 0 0 0 0 0 0 0 0 0 0 0 0 0 0 0 0 0 0 0 0 0 0 0 0 0 0 0 0 0 0 0 0 0 0 0 0 0 0 0 0
0 0 0 0 0 0 0 0 0 0 0 0 0 0 0 0 0 0 0 0 0 0 0 0 0 0 0 0 0 0 0 0 0 0 0 0 0 0 0 0 0 0 0
0 0 0 0 0 0 0 0 0 0 0 0 0 0 0 0 0 0 0 0 0 0 0 0 0 0 0 0 0 0 0 0 0 0 0 0 0 0 0 0 0 0 0
Wind_Speed
9 8 8 8 8 8 8 8 8 8 7 6 6 5 5 4 3 3 4 4 4 4 3 2 2 2 2 2 2 1 1 0 0 1 1 2 2 2 2 2 2 1 2
8 8 8 8 9 9 9 9 9 9 9 7 5 4 4 3 3 3 4 4 4 4 3 4 3 3 2 3 2 2 1 0 0 1 1 2 2 3 2 2 2 2 1
8 8 8 8 8 9 10 8 9 9 9 8 6 4 4 3 3 4 4 4 4 4 4 4 4 3 3 3 3 3 2 1 1 1 2 2 2 1 2 2 2 2 2
7 7 7 8 8 8 8 9 9 9 9 9 8 9 6 6 5 4 4 4 5 5 5 5 5 4 3 3 3 3 2 3 2 1 1 2 2 3 2 2 2 2 3
5 5 6 7 7 7 7 7 8 8 8 9 9 9 7 5 4 4 5 5 5 5 5 5 4 4 4 4 4 3 3 3 3 2 1 2 2 3 4 3 2 2 2
4 4 3 4 5 5 6 7 8 8 8 9 9 9 8 7 7 6 5 5 4 4 5 5 5 5 4 4 4 4 4 3 3 3 2 2 2 2 3 4 4 3 2
3 3 3 3 4 5 6 6 8 8 8 9 9 9 8 8 8 7 6 5 4 4 5 5 5 5 4 4 4 4 4 4 4 4 3 3 3 3 3 4 4 4 3
2 2 3 3 4 5 6 6 7 7 8 8 8 8 8 6 5 6 6 6 4 4 5 5 5 5 5 4 4 4 4 4 4 4 4 3 3 2 3 3 3 4 3
2 2 2 3 3 4 5 6 7 7 7 7 7 7 7 6 6 6 5 4 4 4 5 5 5 5 5 5 5 4 4 4 4 4 4 3 3 2 3 3 3 4 4
1 1 2 2 3 3 4 5 5 6 6 7 7 5 7 6 6 5 6 5 5 4 5 5 5 5 5 5 4 4 4 4 4 3 4 4 3 2 3 3 3 4 5
2 1 1 2 2 3 4 4 5 5 5 6 6 6 6 6 6 5 5 5 5 5 5 5 4 5 5 5 5 4 4 5 4 4 4 4 4 3 3 3 3 4 4
2 2 2 1 2 3 3 4 4 4 4 5 5 6 5 6 6 5 5 5 5 5 5 5 4 5 5 5 5 5 5 5 5 4 4 4 3 4 3 3 4 4 4
2 2 2 2 2 3 3 3 4 4 4 4 5 5 5 5 5 5 5 5 5 5 4 4 4 5 5 5 5 5 5 5 4 4 4 4 4 4 3 4 4 3 3
3 3 2 2 2 2 3 3 3 4 4 5 5 5 5 5 5 5 4 5 5 5 5 5 4 4 5 5 5 5 5 4 4 4 4 4 5 5 4 4 4 3 4
4 4 3 3 2 2 3 3 3 3 4 5 5 5 5 4 4 4 4 4 4 4 4 4 4 4 4 4 5 4 4 4 4 4 4 4 5 5 5 4 4 4 4
5 5 4 3 3 3 3 3 4 4 4 5 5 4 4 4 4 4 4 4 4 4 4 4 4 4 3 4 5 4 4 4 4 4 4 4 5 6 7 7 7 6 5
6 5 5 4 4 4 4 4 4 4 4 4 4 5 5 5 4 4 4 4 4 4 4 4 4 4 3 4 5 5 4 4 4 4 4 3 4 5 5 5 6 6 7
6 5 5 4 4 3 3 4 4 4 4 5 5 5 5 5 4 5 5 4 4 4 4 4 4 3 3 5 5 5 4 3 4 4 4 5 4 4 4 4 4 5 5
6 5 4 4 4 4 3 4 4 4 5 5 5 5 5 5 5 5 5 5 4 4 4 4 4 4 4 5 5 5 3 3 4 4 4 5 4 4 4 4 4 5 4
4 4 3 3 3 3 3 4 5 5 5 5 5 5 5 6 6 6 5 5 5 5 4 4 4 4 4 5 5 5 3 4 3 3 4 5 5 5 5 5 5 5 4
4 4 3 3 3 3 4 5 5 5 5 4 4 5 5 5 6 5 5 5 4 4 4 4 4 4 4 5 6 6 3 4 4 3 3 3 5 6 6 6 5 5 4
4 3 2 3 3 3 4 5 5 4 4 4 4 5 5 4 4 5 5 5 5 5 4 4 4 3 4 4 5 6 6 5 4 4 3 3 5 6 6 5 4 4 4
4 3 2 2 2 3 4 5 5 4 4 4 5 4 4 4 5 5 5 5 5 4 4 4 3 3 3 4 6 6 6 6 5 4 4 4 5 5 4 4 4 3 3
4 3 2 3 3 3 4 5 4 4 4 5 5 4 4 4 4 4 4 5 5 4 4 4 4 3 3 3 3 3 4 5 4 3 3 4 4 3 3 3 3 2 3
4 3 3 3 4 3 4 4 4 4 5 5 4 4 4 4 4 4 4 5 5 5 5 4 4 4 4 4 4 3 3 3 3 2 2 2 2 2 2 2 2 2 2
4 4 4 4 3 3 3 3 4 5 5 4 4 4 3 4 4 3 3 4 4 5 6 5 5 4 5 5 6 5 4 3 3 3 3 3 2 3 3 3 2 2 3
Wind_Direction
242 233 225 217 211 207 203 198 196 190 182 179 181 182 183 180 182 184 184 186 182 180 183 175 176 184 185 191 186 176 167 167 288 245 249 240 235 244 262 262 264 267 283
242 232 222 212 207 205 203 198 194 191 187 187 185 189 181 185 183 179 184 186 184 181 185 185 186 186 185 185 181 177 200 195 250 263 256 240 216 204 246 250 264 273 267
241 233 221 216 209 204 201 197 193 190 189 185 177 167 164 161 173 183 185 187 187 187 187 190 191 188 190 190 189 194 202 200 217 275 270 256 254 281 202 232 256 272 286
243 237 225 217 210 204 196 194 191 188 187 185 184 182 188 191 193 188 185 183 189 195 193 192 193 190 194 194 192 196 204 198 201 220 265 289 305 276 261 217 241 273 279
240 234 228 224 218 203 193 190 187 186 186 189 191 193 198 195 184 182 183 185 188 197 197 195 195 193 195 197 193 191 200 205 208 209 221 245 265 270 268 271 269 266 270
235 231 225 220 212 196 189 186 184 186 187 189 193 199 198 191 183 187 188 188 187 193 196 197 198 199 198 195 198 194 199 204 208 212 215 228 240 246 257 268 276 281 286
231 221 210 207 200 192 187 188 186 187 188 192 196 200 199 194 193 192 194 193 192 195 196 197 200 200 200 198 198 198 202 204 205 211 217 225 242 254 260 266 277 281 288
241 224 213 204 198 192 190 190 191 190 190 195 197 198 197 197 197 195 193 195 196 198 198 199 201 199 198 197 196 199 201 206 209 214 219 228 235 239 250 257 266 273 272
264 242 224 208 201 192 192 194 193 192 193 196 196 194 192 198 197 195 196 195 194 193 195 199 199 197 197 197 194 200 201 205 212 217 220 229 238 240 245 250 255 262 271
290 262 235 221 213 201 195 196 196 195 191 193 195 194 194 196 195 192 193 193 191 189 193 199 200 196 195 195 198 202 203 205 211 218 223 229 233 232 235 241 249 253 262
289 276 263 237 214 198 193 191 193 193 189 189 192 193 191 190 192 194 195 194 189 187 193 197 200 199 197 195 199 204 203 208 211 215 224 231 231 233 232 236 242 245 252
286 287 279 239 198 188 188 188 187 188 190 189 189 189 188 186 190 194 192 190 189 187 191 194 199 201 199 199 200 201 205 208 212 217 222 230 231 234 236 238 245 248 252
291 295 281 246 204 189 187 188 186 185 186 184 185 185 186 187 192 192 189 187 187 184 185 192 199 203 200 200 202 202 206 212 216 218 222 227 229 236 238 242 248 254 260
283 292 282 263 228 209 197 193 194 189 186 185 185 187 188 189 191 190 189 188 187 187 187 195 201 203 202 200 198 201 207 213 219 226 230 231 234 240 242 244 249 253 257
282 281 275 266 241 221 209 203 201 196 189 189 190 192 190 186 185 185 186 184 187 192 191 195 198 199 200 200 199 201 207 211 219 227 233 237 246 253 250 248 248 247 250
276 273 270 264 247 233 220 214 207 200 192 193 196 192 185 180 182 183 181 182 187 189 189 195 198 201 206 201 207 210 208 213 220 229 238 240 241 244 248 252 254 252 249
267 266 259 252 245 238 226 220 212 199 197 196 195 192 186 183 184 181 180 185 190 187 190 196 200 208 204 203 209 213 215 219 227 234 240 243 244 245 247 247 248 249 256
265 266 260 250 246 237 227 220 209 203 203 201 198 195 190 189 187 186 189 193 193 192 196 197 203 210 208 210 212 209 217 227 235 239 243 245 245 243 249 250 249 253 252
266 265 260 248 240 232 219 209 206 204 206 206 202 199 195 195 194 196 198 197 196 197 198 199 204 211 212 208 212 215 215 226 237 241 244 244 247 242 248 251 252 259 261
277 270 262 244 230 227 213 211 212 212 214 213 209 205 202 200 201 202 202 201 201 201 194 200 206 210 216 210 214 223 222 229 237 241 241 242 250 243 243 248 247 251 260
294 276 254 239 228 219 210 215 218 225 224 217 210 206 206 206 205 202 200 196 199 199 199 203 210 215 220 212 212 220 229 230 237 243 247 245 242 249 250 256 253 253 263
303 283 255 238 228 217 212 219 226 227 221 213 209 204 204 205 203 199 197 195 194 196 201 205 212 216 216 221 218 224 237 247 243 245 251 252 247 252 258 259 253 254 261
308 297 260 248 236 222 219 227 233 224 215 210 208 205 200 201 201 199 195 193 195 199 203 207 214 215 215 220 226 231 235 241 251 253 257 261 255 257 254 244 235 239 242
302 296 264 248 248 236 229 232 233 221 210 209 209 204 197 197 199 199 198 197 198 201 204 209 216 218 219 218 217 226 228 229 242 248 235 239 243 258 255 232 226 238 240
294 284 268 259 256 248 241 234 225 211 208 207 205 202 200 197 197 201 206 208 212 213 212 216 217 220 227 229 235 239 236 232 231 234 238 229 230 241 239 234 237 239 237
285 277 269 262 258 244 243 235 219 208 202 202 202 199 195 193 195 196 201 214 223 224 234 237 235 238 248 240 227 232 234 230 210 212 221 226 232 236 235 232 237 237 236